Milwaukee, WI

12:17 PM CDT on October 15, 2018 (GMT -0500)
Gen Mitchell International

Weather History for KMKE - May, 2018

Change the Weather History Date:

Wednesday, May 16, 2018

  Actual Average Record
Temperature  
Mean Temperature 60 °F 56 °F  
Max Temperature 76 °F 65 °F 89 °F (1977)
Min Temperature 43 °F 46 °F 31 °F (1888)
Degree Days  
Heating Degree Days 5 10  
Month to date heating degree days 115 194  
Since 1 July heating degree days 6427 6691  
Cooling Degree Days 0 1  
Month to date cooling degree days 24 6  
Year to date cooling degree days 24 11  
Growing Degree Days 9 (Base 50)    
Moisture  
Dew Point 45 °F    
Average Humidity 58    
Maximum Humidity 83    
Minimum Humidity 33    
Precipitation  
Precipitation 0.00 in 0.10 in 1.94 in (1928)
Month to date precipitation 5.32 1.67  
Year to date precipitation 13.91 10.91  
Snow  
Snow 0.00 in 0.00 in 0.00 in ()
Month to date snowfall 0.0 0.1  
Since 1 July snowfall 46.7 46.9  
Snow Depth 0.00 in    
Sea Level Pressure  
Sea Level Pressure 30.00 in    
Wind  
Wind Speed 6 mph (South)    
Max Wind Speed 17 mph    
Max Gust Speed 20 mph    
Visibility 10 miles    
Events      
T = Trace of Precipitation, MM = Missing Value Source: NWS Daily Summary

Daily Weather History Graph

Daily Weather History Graph

Search for Another Location

Airport or City:

Astronomy

May. 16, 2018 Rise Set
Actual Time 5:27 AM CDT 8:09 PM CDT
Civil Twilight 4:54 AM CDT 8:41 PM CDT
Nautical Twilight 4:13 AM CDT 9:23 PM CDT
Astronomical Twilight 3:26 AM CDT 10:10 PM CDT
Moon 6:40 AM CDT (5/16) 9:37 PM CDT (5/16)
Length of Visible Light 15h 47m
Length of Day
14h 41m
New Moon, 2% of the Moon is Illuminated
May 16
New Moon
May 21
First Quarter
May 29
Full
Jun 6
Last Quarter
Jun 13
New

Hourly Weather History & Observations

Time (CDT) Temp. Windchill Dew Point Humidity Pressure Visibility Wind Dir Wind Speed Gust Speed Precip Events Conditions
12:52 AM 51.1 °F - 37.0 °F 59% 30.03 in 10.0 mi WNW 3.5 mph - N/A   Partly Cloudy
1:52 AM 48.0 °F - 37.0 °F 66% 30.03 in 10.0 mi NNW 3.5 mph - N/A   Partly Cloudy
2:52 AM 46.9 °F - 37.0 °F 68% 30.02 in 10.0 mi NW 4.6 mph - N/A   Clear
3:52 AM 46.0 °F - 37.9 °F 73% 30.02 in 10.0 mi Calm Calm - N/A   Clear
4:52 AM 45.0 °F 43.5 °F 39.0 °F 80% 30.03 in 10.0 mi NW 3.5 mph - N/A   Partly Cloudy
5:52 AM 44.1 °F - 37.9 °F 79% 30.05 in 10.0 mi Calm Calm - N/A   Partly Cloudy
6:52 AM 52.0 °F - 43.0 °F 71% 30.06 in 10.0 mi NW 3.5 mph - N/A   Partly Cloudy
7:52 AM 60.1 °F - 43.0 °F 53% 30.05 in 10.0 mi Calm Calm - N/A   Clear
8:52 AM 66.0 °F - 44.1 °F 45% 30.04 in 10.0 mi SE 3.5 mph - N/A   Clear
9:52 AM 71.1 °F - 44.1 °F 38% 30.03 in 10.0 mi South 5.8 mph - N/A   Partly Cloudy
10:52 AM 73.9 °F - 43.0 °F 33% 30.03 in 10.0 mi South 5.8 mph - N/A   Partly Cloudy
11:52 AM 75.9 °F - 44.1 °F 32% 30.01 in 10.0 mi South 5.8 mph - N/A   Partly Cloudy
12:52 PM 73.9 °F - 50.0 °F 43% 30.00 in 10.0 mi ESE 8.1 mph - N/A   Partly Cloudy
1:52 PM 75.9 °F - 48.9 °F 38% 29.98 in 10.0 mi SE 10.4 mph - N/A   Partly Cloudy
2:52 PM 75.9 °F - 50.0 °F 40% 29.97 in 10.0 mi SE 15.0 mph - N/A   Partly Cloudy
3:52 PM 75.9 °F - 51.1 °F 42% 29.96 in 10.0 mi SE 13.8 mph - N/A   Partly Cloudy
4:52 PM 75.9 °F - 53.1 °F 45% 29.96 in 10.0 mi ESE 12.7 mph - N/A   Partly Cloudy
5:52 PM 73.9 °F - 55.0 °F 52% 29.95 in 10.0 mi SE 12.7 mph - N/A   Clear
6:52 PM 73.0 °F - 54.0 °F 51% 29.95 in 10.0 mi SSE 8.1 mph - N/A   Clear
7:52 PM 70.0 °F - 52.0 °F 53% 29.96 in 10.0 mi South 8.1 mph - N/A   Clear
8:52 PM 68.0 °F - 46.9 °F 47% 29.96 in 10.0 mi South 5.8 mph - N/A   Clear
9:52 PM 66.9 °F - 42.1 °F 40% 29.97 in 10.0 mi South 4.6 mph - N/A   Clear
10:52 PM 66.0 °F - 42.1 °F 42% 29.98 in 10.0 mi South 4.6 mph - N/A   Clear
11:52 PM 64.0 °F - 43.0 °F 46% 29.98 in 10.0 mi SSW 4.6 mph - N/A   Clear